sat.trackr.live / text

‹ back to catalog

STARLINK-35468

NORAD 66118 · 2025-237E

PAYLOAD ACTIVE UNKNOWN

§ Identity

Operator
Country
US
Launch date
2025-10-22
Launch site
AFWTR
Launch vehicle
Mass (kg)
RCS (m²)

Purposes: comms

External: N2YO · Heavens-Above · Gunter

§ Orbital elements

Epoch: 2026-09-19T13:59:47.132160Z

Period
93.85 min
Inclination
53.1570°
Eccentricity
0.0000967
Mean motion
15.34391302 rev/d
Perigee alt
462.1 km
Apogee alt
463.4 km
Semi-major
6,840.9 km
B*
5.0804e-4
RAAN
217.7967°
Arg perigee
94.7530°
Mean anomaly
265.3583°
Rev number
5,230

§ Raw data

STARLINK-354681 66118U 25237E   26262.58318440  .00016823  00000+0  50804-3 0  99912 66118  53.1570 217.7967 0000967  94.7530 265.3583 15.34391302 52307

JSON: /api/v1/satellites/66118 · /tle

For live sub-satellite position, see the globe view (requires WebGL).

§ Visibility from observer

Set your observer location to see the next 7 days of passes ≥ 10°. The values pass through the URL so the page stays shareable.

No JS? Fill the form by hand. The geolocation button needs JavaScript.